VY1XY Weather Reports


time (UTC)temp
C
wind
direction
speed
KPH
gust
KPH
rain 1hr
cm
rain 24hr
cm
rain mn
cm
humidity
%
barometer
mb
20260506235908 10 158 3.2 17.7 0.00 0.00 0.00 45 1012.1
20260506235008 10 170 3.2 19.3 0.00 0.00 0.00 44 1012.1
20260506234109 10 158 4.8 22.5 0.00 0.00 0.00 46 1012.1
20260506233208 10 171 3.2 14.5 0.00 0.00 0.00 46 1012.2
20260506232308 10 170 3.2 14.5 0.00 0.00 0.00 43 1012.3
20260506231408 11 261 1.6 6.4 0.00 0.00 0.00 42 1012.3
20260506225608 11 218 3.2 16.1 0.00 0.00 0.00 41 1012.3
20260506224708 11 266 3.2 11.3 0.00 0.00 0.00 43 1012.3
20260506222908 9 270 3.2 9.7 0.00 0.00 0.00 44 1012.3
20260506222008 11 178 3.2 12.9 0.00 0.00 0.00 43 1012.4
20260506221108 10 179 1.6 9.7 0.00 0.00 0.00 46 1012.5
20260506220208 9 195 1.6 9.7 0.00 0.00 0.00 46 1012.5
20260506215309 8 263 3.2 6.4 0.00 0.00 0.00 46 1012.5
20260506214408 8 273 3.2 9.7 0.00 0.00 0.00 44 1012.4
20260506212608 8 218 3.2 12.9 0.00 0.00 0.00 49 1012.4
20260506210808 8 171 1.6 8.0 0.00 0.00 0.00 49 1012.4
20260506205908 8 166 1.6 6.4 0.00 0.00 0.00 50 1012.4
20260506205008 8 140 1.6 12.9 0.00 0.00 0.00 49 1012.3
20260506204109 8 144 1.6 11.3 0.00 0.00 0.00 47 1012.4
20260506203208 9 201 3.2 11.3 0.00 0.00 0.00 48 1012.4
20260506202308 9 162 1.6 8.0 0.00 0.00 0.00 49 1012.3
20260506201408 8 155 3.2 16.1 0.00 0.00 0.00 49 1012.4
20260506200508 9 171 3.2 11.3 0.00 0.00 0.00 49 1012.2
20260506195608 8 246 1.6 6.4 0.00 0.00 0.00 47 1012.3
20260506194708 8 231 1.6 6.4 0.00 0.00 0.00 45 1012.2
20260506193808 8 201 3.2 9.7 0.00 0.00 0.00 44 1012.1
20260506192909 9 237 3.2 9.7 0.00 0.00 0.00 44 1012.0
20260506192008 8 246 1.6 9.7 0.00 0.00 0.00 45 1012.0
20260506191108 8 246 1.6 8.0 0.00 0.00 0.00 46 1012.1
20260506185309 8 274 1.6 6.4 0.00 0.00 0.00 47 1012.0
20260506184408 8 283 3.2 12.9 0.00 0.00 0.00 47 1012.0
20260506183509 7 289 1.6 6.4 0.00 0.00 0.00 49 1012.1
20260506182608 8 237 1.6 6.4 0.00 0.00 0.00 49 1012.1
20260506175908 8 181 3.2 11.3 0.00 0.00 0.00 49 1012.0
20260506175008 7 193 1.6 9.7 0.00 0.00 0.00 49 1012.0
20260506174109 8 190 1.6 11.3 0.00 0.00 0.00 49 1012.0
20260506173208 8 243 1.6 11.3 0.00 0.00 0.00 48 1012.0
20260506172308 8 172 1.6 9.7 0.00 0.00 0.00 52 1012.2
20260506170508 7 132 1.6 8.0 0.00 0.00 0.00 54 1012.2
20260506165608 7 198 1.6 11.3 0.00 0.00 0.00 56 1012.3
20260506164708 6 185 1.6 9.7 0.00 0.00 0.00 57 1012.3
20260506162908 6 143 3.2 14.5 0.00 0.00 0.00 57 1012.2
20260506161108 6 150 3.2 14.5 0.00 0.00 0.00 59 1012.2
20260506160208 6 161 3.2 11.3 0.00 0.00 0.00 59 1012.1
20260506155309 6 159 1.6 11.3 0.00 0.00 0.00 59 1012.0
20260506154408 6 150 1.6 11.3 0.00 0.00 0.00 61 1012.1
20260506152608 5 154 1.6 6.4 0.00 0.00 0.00 68 1011.9
20260506145908 3 174 0.0 3.2 0.00 0.00 0.00 74 1011.8
20260506145008 1 126 0.0 1.6 0.00 0.00 0.00 78 1011.8
20260506144109 1 153 0.0 1.6 0.00 0.00 0.00 80 1011.9
20260506143208 0 135 0.0 1.6 0.00 0.00 0.00 81 1011.8
20260506141407 0 140 0.0 1.6 0.00 0.00 0.00 82 1011.5
20260506140508 0 0 0.0 0.0 0.00 0.00 0.00 84 1011.5
20260506135608 0 0 0.0 0.0 0.00 0.00 0.00 85 1011.6
20260506134708 -1 0 0.0 0.0 0.00 0.00 0.00 84 1011.5
20260506133809 -1 0 0.0 0.0 0.00 0.00 0.00 84 1011.5
20260506132007 0 137 0.0 1.6 0.00 0.00 0.00 83 1011.2
20260506131108 -1 0 0.0 0.0 0.00 0.00 0.00 84 1011.2
20260506124407 0 94 0.0 1.6 0.00 0.00 0.00 82 1011.0
20260506123507 0 0 0.0 0.0 0.00 0.00 0.00 81 1010.9
20260506121708 0 92 0.0 1.6 0.00 0.00 0.00 78 1010.9
20260506120808 1 109 0.0 3.2 0.00 0.00 0.00 77 1010.7
20260506115907 1 149 0.0 3.2 0.00 0.00 0.00 78 1010.6
20260506115009 1 123 0.0 8.0 0.00 0.00 0.00 79 1010.8
20260506114107 0 135 0.0 3.2 0.00 0.00 0.00 81 1010.6
20260506113208 0 100 0.0 3.2 0.00 0.00 0.00 80 1010.7
20260506112307 0 0 0.0 0.0 0.00 0.00 0.00 79 1010.5
20260506111407 1 151 1.6 6.4 0.00 0.00 0.00 79 1010.6
20260506110507 0 143 0.0 6.4 0.00 0.00 0.00 81 1010.3
20260506105607 0 139 0.0 6.4 0.00 0.00 0.00 83 1010.3
20260506103808 0 0 0.0 0.0 0.00 0.00 0.00 85 1010.3
20260506102908 0 0 0.0 0.0 0.00 0.00 0.00 83 1010.3
20260506102007 0 108 0.0 1.6 0.00 0.00 0.00 83 1010.3
20260506101107 0 107 0.0 1.6 0.00 0.00 0.00 83 1010.2
20260506100207 0 97 0.0 1.6 0.00 0.00 0.00 81 1010.2
20260506095308 0 90 0.0 1.6 0.00 0.00 0.00 80 1010.1
20260506094407 0 100 0.0 3.2 0.00 0.00 0.00 79 1010.2
20260506093507 0 148 0.0 3.2 0.00 0.00 0.00 79 1010.1
20260506092607 0 119 0.0 1.6 0.00 0.00 0.00 80 1010.0
20260506091708 0 130 0.0 1.6 0.00 0.00 0.00 80 1009.8
20260506090807 0 138 0.0 1.6 0.00 0.00 0.00 80 1009.8
20260506085907 0 144 0.0 1.6 0.00 0.00 0.00 78 1009.9
20260506083207 1 145 0.0 1.6 0.00 0.00 0.00 76 1009.6
20260506082307 1 132 0.0 4.8 0.00 0.00 0.00 76 1009.7
20260506081407 1 147 0.0 1.6 0.00 0.00 0.00 75 1009.7
20260506080507 1 188 0.0 3.2 0.00 0.00 0.00 75 1009.6
20260506072007 2 145 0.0 6.4 0.00 0.00 0.00 73 1009.3
20260506071107 2 153 1.6 6.4 0.00 0.00 0.00 72 1009.2
20260506070207 2 157 0.0 6.4 0.00 0.00 0.00 72 1009.2
20260506061708 3 188 1.6 8.0 0.00 0.00 0.00 71 1008.8
20260506060807 3 201 1.6 6.4 0.00 0.00 0.00 71 1009.0
20260506050507 4 155 3.2 20.9 0.00 0.00 0.00 64 1008.9
20260506044707 5 199 3.2 17.7 0.00 0.00 0.00 63 1008.8
20260506043807 5 147 3.2 11.3 0.00 0.00 0.00 62 1008.6
20260506042908 5 149 3.2 9.7 0.00 0.00 0.00 61 1008.8
20260506042007 6 144 3.2 11.3 0.00 0.00 0.00 60 1008.8
20260506041107 6 133 3.2 12.9 0.00 0.00 0.00 58 1008.7
20260506040207 7 152 3.2 12.9 0.00 0.00 0.00 57 1008.4
20260506035308 7 157 3.2 19.3 0.00 0.00 0.00 55 1008.2
20260506034407 7 151 3.2 17.7 0.00 0.00 0.00 55 1007.9
20260506032607 7 146 3.2 17.7 0.00 0.00 0.00 53 1008.1
20260506031707 8 144 6.4 16.1 0.00 0.00 0.00 52 1008.0
20260506030807 8 147 4.8 16.1 0.00 0.00 0.00 50 1007.9
20260506025907 9 160 4.8 19.3 0.00 0.00 0.00 49 1007.8
20260506024108 10 142 3.2 11.3 0.00 0.00 0.00 47 1007.9
20260506023207 10 139 3.2 16.1 0.00 0.00 0.00 46 1007.8
20260506022307 10 171 3.2 19.3 0.00 0.00 0.00 45 1007.6
20260506020507 11 148 1.6 9.7 0.00 0.00 0.00 43 1007.7
20260506015607 11 146 3.2 14.5 0.00 0.00 0.00 44 1007.4
20260506014707 10 137 4.8 17.7 0.00 0.00 0.00 44 1007.2
20260506012907 11 150 4.8 20.9 0.00 0.00 0.00 43 1007.2
20260506012007 11 171 4.8 20.9 0.00 0.00 0.00 44 1006.9
20260506011107 11 155 4.8 17.7 0.00 0.00 0.00 42 1007.2
20260506010208 11 174 4.8 19.3 0.00 0.00 0.00 42 1007.2
20260506005307 12 164 4.8 19.3 0.00 0.00 0.00 40 1007.2
20260506004407 12 154 6.4 20.9 0.00 0.00 0.00 40 1007.2
20260506003507 12 156 4.8 17.7 0.00 0.00 0.00 38 1006.9
20260506002608 12 154 4.8 20.9 0.00 0.00 0.00 39 1007.0
20260506000806 12 138 4.8 16.1 0.00 0.00 0.00 39 1006.9